STARLINK-35047, 65806

Orbit data source: Space-Track

STARLINK-35047, 65806 is a payload satellite owned by SpaceX/Seattle (US) in SSO that was launched on Fri, 26 Sep 2025 UTC via an FALCON 9 launch vehicle from the Air Force Western Test Range (AFWTR). Payload-class satellites include a variety of spacecraft equipped with specific instruments for various scientific and technological missions. These include communications satellites like Starlink; space stations such as the ISS; scientific satellites like the Hubble; Earth observation satellites from companies like Planet Labs, Umbra, and HawkEye 360; GPS; miniature CubeSats for education and research; and military/defense satellites.

Loading next visibility...
Identifier
65806, 2025-218R
Orbit
SSO
Country
Flag of USUS
Related business
Manufacturer
SpaceX/Seattle
Mission
Operational Commercial Communications
Bus & Motor
STARLINK V2MO, Unknown motor
Mass
575 kg wet, ~530 kg dry
Launch date (UTC)
2025-09-26 (9 months ago)
Launch vehicle
FALCON 9
Launch site
Air Force Western Test Range (AFWTR)
Object type
Payload
Rocket body
Debris
Shape & HBR
Box + 2 Pan, 17.7 m
Radar Cross Section
36.964 m², Large (>1 m²)

Expand to show TLE details & history
Last TLE update: 14 hours ago

TLE from 14 hours ago
0 STARLINK-35047
1 65806U 25218R   26171.32845742  .00005714  00000-0  39959-3 0  9990
2 65806  97.3375  33.0233 0002054 111.8574 248.2872 15.05654967 40413
Epoch: 2026-06-20T07:52Z
TLE epoch observation values (Epoch: 2026-06-20T07:52:58.721Z)
Latitude
-0.00001°
Longitude
6.23398°
Altitude
553.095 km
Speed
7.585 km/s
True Right ascension
02h 12m 05s
True Declination
0° 00' 00"
Sunlit
Object was in daylight at epoch
Visualization orbit readout
Latitude
Unknown
Longitude
Unknown
Altitude
Unknown
Speed
Unknown
Apparent Right ascension
Unknown
Apparent Declination
Unknown
Sunlit
N/A
Visualization observer readout
Local Sidereal Time
08:41:39
Azimuth
Unknown
Elevation
Unknown
Doppler factor
Unknown
Orbital elements
Apogee altitude
547.9 km
Perigee altitude
545.056 km
Semi-major axis
6,924.615 km
Eccentricity
0.00021
Inclination
97.3375°
RAAN
33.0233°
Arg. of periapsis
111.8574°
True anomaly
248.26533°
Mean anomaly
248.2872°
Eccentric anomaly
248.27627°
Mean motion
3.7666 °/min
Orbital period
95.58 mins
BSTAR
0.00039959
Loading maneuver chart data...
Computing Atmospheric mass density...
Loading historical data...
Loading historical data...
Loading historical data...
Loading historical data...
Loading historical data...
Loading historical data...
Loading historical data...

Documentation

Showing up to 5 results
|